Location: Baia Mare
(47.6567°N, 23.5850°E)
Time: 20:22:21
(UTC+03:00)

ISS - Pass Details

Date: 03 September 2018
Orbit: 403 x 408 km, 51.6° (Epoch: 26 September)

Event Time Altitude Azimuth Distance (km) Brightness Sun altitude
Exits shadow 05:05:20 31° 185° (S) 730 -2.9 -16.5°
Maximum altitude 05:06:14 39° 146° (SE) 623 -2.9 -16.4°
Drops below altitude 10° 05:09:19 10° 76° (ENE) 1,463 0.2 -16.0°
Sets 05:11:28 0° 68° (ENE) 2,324 1.8 -15.7°
